Regional Weather Roundup
Issued by NWS

Home | Current Version | Previous Version | Text Only | Print | Product List | Glossary On
Versions: 1 2 3 4 5 6 7 8 9 10 11 12 13 14 15 16 17 18 19 20 21 22 23 24 25 26 27 28 29 30 31 32 33 34 35 36 37 38 39 40 41 42 43 44 45 46 47 48 49 50
000
ASUS43 KMPX 192101
RWRMN
WEATHER ROUNDUP FOR MINNESOTA
NATIONAL WEATHER SERVICE TWIN CITIES/CHANHASSEN MN
300 PM CST THU JAN 19 2017


NOTE: "FAIR" INDICATES FEW OR NO CLOUDS BELOW 12,000 FEET WITH NO
SIGNIFICANT WEATHER AND/OR OBSTRUCTIONS TO VISIBILITY. N/A MEANS
CURRENT SKY AND/OR WEATHER CONDITIONS ARE NOT AVAILABLE.

MNZ060>063-068>070-192200-
   Twin Cities Metro

CITY           SKY/WX    TMP DP  RH WIND       PRES   REMARKS
TWIN CITIES    PTSUNNY   37  31  78 S13       29.76S
ST PAUL        CLOUDY    35  33  92 SE9       29.77F WCI  28
CRYSTAL        PTSUNNY   38  31  76 SE9       29.73S
BLAINE         PTSUNNY   39  34  81 SE9       29.74S FOG
LAKEVILLE      CLOUDY    34  34 100 SE6       29.75S WCI  29
EDEN PRAIRIE   CLOUDY    38  32  79 SE9       29.73S
SOUTH ST PAUL  CLOUDY    36  33  89 SE6       29.76S
LAKE ELMO      CLOUDY    36  32  87 SE7       29.76F
$$
MNZ001>005-007-008-013>017-022>024-027-028-192200-
   Northwest Minnesota

CITY           SKY/WX    TMP DP  RH WIND       PRES   REMARKS
BEMIDJI        SUNNY     41  36  80 S7        29.60S
HALLOCK        CLOUDY    30  28  93 S20       29.54R FOG     WCI  18
ROSEAU         CLOUDY    36  30  80 S12       29.55S
WARROAD        CLOUDY    41  34  75 S6        29.56F
THIEF RVR FALL SUNNY     39  33  79 S10       29.58S
CROOKSTON      FOG       30  30 100 SW10      29.58R VSB 1/2 WCI  21
FOSSTON        SUNNY     43  36  75 SW8       29.59R
DETROIT LAKES  SUNNY     43  36  75 S10       29.61S
MOORHEAD       SUNNY     37  34  87 S10       29.59S
PARK RAPIDS    SUNNY     43  34  70 S12       29.62S
MAHNOMEN       FAIR      41  36  81 S13       29.57S
$$
MNZ006-009>011-018-025>026-192200-
   North Central Minnesota

CITY           SKY/WX    TMP DP  RH WIND       PRES   REMARKS
BAUDETTE       SUNNY     36  31  82 S9        29.58S
FLAG ISLAND    CLOUDY    30  28  93 S16       29.56S FOG     WCI  19
INTL FALLS     SUNNY     39  32  76 VRB5      29.62S
WASKISH        SUNNY     43  36  75 SE6       29.61R
BIG FORK       SUNNY     41  36  81 S5        29.64S
LONGVILLE      SUNNY     45  37  76 S8        29.65R
GRAND RAPIDS   CLOUDY    40  37  89 S6        29.69R
CRANE LAKE     MOSUNNY   37  34  87 S3        29.68R
ORR            PTSUNNY   39  34  81 S3        29.63S
COOK           CLOUDY    39  36  87 S5        29.67S
WALKER         FAIR      41  35  80 SE5       29.63R
$$
MNZ012-019>021-037-192200-
   Northeast Minnesota

CITY           SKY/WX    TMP DP  RH WIND       PRES   REMARKS
DULUTH         SUNNY     44  35  70 S10       29.70R
ELY            SUNNY     43  36  75 SW5       29.68R
HIBBING        FOG       35  35 100 S7        29.68R VSB 1/4 WCI  29
EVELETH        CLOUDY    37  37  98 S3        29.71R FOG
DULUTH HARBOR  SUNNY     37  34  87 CALM      29.73R FOG
TWO HARBORS    SUNNY     46  37  71 S3        29.70R
SILVER BAY     SUNNY     43  36  75 CALM      29.71R
G MARAIS ARPRT FOG       32  28  86 S3        29.71R VSB<1/4
$$
MNZ029>031-032-039>041-046>048-054>057-064-192200-
   West Central Minnesota

CITY           SKY/WX    TMP DP  RH WIND       PRES   REMARKS
FERGUS FALLS   SUNNY     37  36  93 SE15      29.65S
WHEATON        SUNNY     43  39  87 SE15      29.62S
MORRIS         SUNNY     37  36  93 SE15      29.62F FOG
ALEXANDRIA     SUNNY     39  35  86 S12       29.65S
ELBOW LAKE     FAIR      37  34  90 E13       29.63R FOG
WADENA         SUNNY     39  36  87 S8        29.64S
GLENWOOD       SUNNY     37  36  93 SE13      29.66S
APPLETON       PTSUNNY   39  36  87 S10       29.64R FOG
BENSON         MOSUNNY   39  32  75 S15         N/A
ORTONVILLE     MOSUNNY   37  34  87 CALM      29.62R
MADISON        CLOUDY    39  37  93 SE12      29.63S FOG
WILLMAR        PTSUNNY   36  36 100 SE13      29.69R FOG
$$
MNZ033>034-036-042>043-049>051-058-059-192200-
   Central Minnesota

CITY           SKY/WX    TMP DP  RH WIND       PRES   REMARKS
ST CLOUD       SUNNY     39  34  82 S9        29.70S
SAUK CENTRE    FOG       33  33  99 SE15      29.68R VSB 1/4 WCI  23
PAYNESVILLE    CLOUDY    34  34 100 SE12      29.69S FOG     WCI  25
AITKIN         SUNNY     45  34  65 S8        29.67S
PINE RIVER     SUNNY     43  36  75 SE8       29.70R
BRAINERD       SUNNY     40  34  79 S10       29.68R
STAPLES        SUNNY     43  34  70 S6        29.65S
LONG PRAIRIE   FAIR      37  32  81 SE8       29.67R HAZE
LITTLE FALLS   SUNNY     41  32  70 SE5       29.69R
LITCHFIELD     PTSUNNY   37  36  93 SE7       29.70F FOG
BUFFALO        MOSUNNY   41  33  73 SE5       29.72F
MAPLE LAKE     MOSUNNY   41  36  82 SE6       29.72S
HUTCHINSON     CLOUDY    38  36  91 SE8       29.72R
$$
MNZ037-044-045-052-053-192200-
   East Central Minnesota

CITY           SKY/WX    TMP DP  RH WIND       PRES   REMARKS
PRINCETON      SUNNY     45  36  70 SE8       29.71S
MORA           SUNNY     43  34  70 S8        29.73S
CAMBRIDGE      SUNNY     45  34  65 SE6       29.70F
RUSH CITY      SUNNY     43  34  70 S9        29.73S
MOOSE LAKE     SUNNY     45  34  65 S6        29.69R
HINCKLEY       FAIR      43  34  70 S8        29.73R
CLOQUET        SUNNY     46  34  61 S10       29.70R
MCGREGOR       SUNNY     43  36  75 S6        29.70R
$$
MNZ071>073-080-081-089-090-097-098-192200-
   Southwest Minnesota

CITY           SKY/WX    TMP DP  RH WIND       PRES   REMARKS
MONTEVIDEO     CLOUDY    39  36  87 S9        29.67R FOG
GRANITE FALLS  CLOUDY    38  37  94 SE10      29.67S FOG
CANBY          PTSUNNY   40  38  91 S7G16     29.64R
MARSHALL       CLOUDY    40  39  97 S13       29.64F
REDWOOD FALLS  CLOUDY    38  35  89 SE10      29.68S FOG
OLIVIA         CLOUDY    36  34  93 S7        29.68S
PIPESTONE      SNOW      37  36  93 S10       29.63S VSB<1/4
WINDOM         CLOUDY    37  37 100 SE5       29.67F FOG
WORTHINGTON    CLOUDY    36  36 100 MISG        N/A  FOG
JACKSON        MOSUNNY   36  34  93 SE8       29.68S FOG
TRACY          CLOUDY    40  39  97 S14       29.65S FOG
SLAYTON        FOG       38  38 100 S13       29.66S VSB 1/4
$$
MNZ065>067-074>077-082>085-091>093-192200-
   South Central Minnesota

CITY           SKY/WX    TMP DP  RH WIND       PRES   REMARKS
NEW ULM        PTSUNNY   37  36  93 S13       29.70F
ST JAMES       PTSUNNY   37  37 100 SE8       29.71S
FAIRMONT       CLOUDY    38  35  89 SE12      29.71S
GLENCOE        CLOUDY    39  37  89 SE7       29.72S
FARIBAULT      CLOUDY    37  34  87 SE5       29.75S
OWATONNA       CLOUDY    36  32  87 S8        29.74S
WASECA         CLOUDY    34  32  93 SE10      29.74S WCI  26
ALBERT LEA     CLOUDY    34  34 100 SE8       29.74S WCI  27
$$
MNZ078>079-086>088-094>096-192200-
   Southeast Minnesota

CITY           SKY/WX    TMP DP  RH WIND       PRES   REMARKS
ROCHESTER      CLOUDY    34  32  92 S16       29.76F WCI  24
RED WING       CLOUDY    36  32  87 SE5       29.77S
STANTON        CLOUDY    38  32  81 S3        29.75S
DODGE CENTER   SUNNY     34  32  93 SE12      29.74F WCI  25
WINONA         CLOUDY    36  32  87 SE6       29.81F
AUSTIN         CLOUDY    34  32  93 SE7       29.76S WCI  28
PRESTON        CLOUDY    35  32  90 E3        29.78F FOG
$$
ABBREVIATIONS USED IN REMARKS
   TC - TEMPERATURES IN CELSIUS
  WCI - WIND CHILL INDEX
   HX - HEAT INDEX
  VSB - VISIBILITY
$$




USA.gov is the U.S. government's official web portal to all federal, state and local government web resources and services.